Location: Unspecified
(0.0000°N, 0.0000°E)
Time: 16:12:09
(UTC+02:00)

Iridium 84 - Visible Passes

Search period start: 28 June 2017 00:00
Search period end: 08 July 2017 00:00
Orbit: 776 x 779 km, 86.4° (Epoch: 27 June)

Date Brightness Start Highest point End Pass type
(mag) Time Alt. Az. Time Alt. Az. Time Alt. Az.
28 Jun 7.0 05:57:47 11° SSE 06:02:21 34° E 06:07:01 10° NNE visible
29 Jun 8.2 05:25:53 10° SE 05:28:53 16° E 05:31:54 10° NE visible
29 Jun 6.4 07:05:48 14° SW 07:09:19 29° W 07:13:45 10° NNW visible
30 Jun 5.4 06:33:13 29° SSW 06:35:52 65° W 06:41:01 10° N visible
01 Jul 6.1 06:00:36 37° SSE 06:02:25 56° E 06:07:30 10° NNE visible
02 Jul 7.4 05:27:57 24° ESE 05:28:58 25° E 05:33:11 10° NE visible
02 Jul 6.9 07:08:28 17° WSW 07:09:23 18° W 07:12:50 10° NW visible
03 Jul 8.4 04:55:15 11° E 04:55:31 11° E 04:56:48 10° ENE visible
03 Jul 5.9 06:35:46 39° W 06:35:56 39° W 06:40:46 10° NNW visible
04 Jul 5.5 06:03:03 72° N 06:03:03 72° N 06:07:41 10° N visible
05 Jul 6.9 05:30:16 35° ENE 05:30:16 35° ENE 05:33:53 10° NNE visible
06 Jul 8.1 04:57:27 15° ENE 04:57:27 15° ENE 04:59:06 10° NE visible
06 Jul 7.0 06:37:58 20° WNW 06:37:58 20° WNW 06:40:09 10° NW visible
07 Jul 6.8 06:05:08 28° NNW 06:05:08 28° NNW 06:07:37 10° NNW visible
